Location: Newark
(52.3500°N, 175.9667°E)
Time: 07:41:56
(UTC+00:00)

Vanguard 2 - All Passes

Search period start: 20 April 2021 00:00
Search period end: 30 April 2021 00:00
Orbit: 552 x 2938 km, 32.9° (Epoch: 19 April)

Date Brightness Start Highest point End Pass type
(mag) Time Alt. Az. Time Alt. Az. Time Alt. Az.
20 Apr - 00:13:01 10° SSW 00:23:10 21° SSE 00:31:06 10° ESE daylight
20 Apr - 02:21:48 10° SW 02:31:58 26° S 02:39:11 10° SE daylight
20 Apr - 04:33:14 10° WSW 04:39:47 18° SSW 04:44:44 10° SSE daylight
20 Apr - 22:24:40 10° S 22:31:28 14° SSE 22:37:34 10° ESE daylight
21 Apr - 00:29:12 10° SSW 00:40:31 25° SSE 00:49:05 10° ESE daylight
21 Apr - 02:38:57 10° SW 02:49:17 26° S 02:56:34 10° SE daylight
21 Apr - 04:51:11 10° WSW 04:56:53 16° SSW 05:01:22 10° S daylight
21 Apr - 22:39:03 10° S 22:48:41 18° SSE 22:56:55 10° ESE daylight
22 Apr - 00:45:46 10° SW 00:57:52 28° S 01:06:50 10° ESE daylight
22 Apr - 02:56:18 10° WSW 03:06:34 26° SSW 03:13:49 10° SE daylight
22 Apr - 05:09:35 10° WSW 05:13:54 13° SW 05:17:29 10° S daylight
22 Apr - 22:54:30 10° SSW 23:05:56 22° SSE 23:15:25 10° ESE daylight
23 Apr - 01:02:37 10° SW 01:15:13 30° S 01:24:25 10° ESE daylight
23 Apr - 03:13:48 10° WSW 03:23:46 25° SSW 03:30:53 10° SSE daylight
23 Apr - 05:29:27 10° SW 05:30:48 10° SW 05:32:05 10° SSW daylight
23 Apr - 21:07:41 10° SSE 21:14:07 13° SE 21:20:11 10° ESE daylight
23 Apr - 23:10:32 10° SSW 23:23:13 26° SSE 23:33:29 10° ESE daylight
24 Apr - 01:19:40 10° SW 01:32:33 31° S 01:41:52 10° SE daylight
24 Apr - 03:31:29 10° WSW 03:40:54 23° SSW 03:47:48 10° SSE daylight
24 Apr - 21:21:31 10° S 21:31:11 17° SE 21:40:03 10° ESE daylight
24 Apr - 23:26:57 10° SW 23:40:30 29° SSE 23:51:18 10° ESE daylight
25 Apr - 01:36:55 10° WSW 01:49:50 31° S 01:59:10 10° SE daylight
25 Apr - 03:49:22 10° WSW 03:57:58 20° SSW 04:04:26 10° SSE daylight
25 Apr - 21:36:40 10° SSW 21:48:18 22° SSE 21:58:48 10° ESE daylight
25 Apr - 23:43:40 10° SW 23:57:48 32° S 00:08:57 10° ESE daylight
26 Apr - 01:54:18 10° WSW 02:07:06 31° SSW 02:16:22 10° SE daylight
26 Apr - 04:07:35 10° WSW 04:14:55 17° SW 04:20:43 10° S daylight
26 Apr - 19:52:49 10° SSE 19:56:39 11° SE 20:00:27 10° ESE daylight
26 Apr - 21:52:29 10° SSW 22:05:26 26° SSE 22:17:01 10° ESE daylight
27 Apr - 00:00:38 10° SW 00:15:07 34° S 00:26:27 10° ESE daylight
27 Apr - 02:11:51 10° WSW 02:24:17 29° SSW 02:33:24 10° SE daylight
27 Apr - 04:26:23 10° WSW 04:31:47 14° SW 04:36:20 10° SSW daylight
27 Apr - 20:05:08 10° S 20:13:32 15° SE 20:21:51 10° ESE daylight
27 Apr - 22:08:46 10° SSW 22:22:38 30° SSE 22:34:57 10° ESE daylight
28 Apr - 00:17:47 10° WSW 00:32:25 35° S 00:43:50 10° SE daylight
28 Apr - 02:29:32 10° WSW 02:41:23 27° SSW 02:50:14 10° SSE daylight
28 Apr - 04:47:45 10° SW 04:48:33 10° SW 04:49:19 10° SW daylight
28 Apr - 20:19:49 10° S 20:30:29 20° SE 20:41:03 10° ESE daylight
28 Apr - 22:25:22 10° SW 22:39:52 33° SSE 22:52:40 10° ESE daylight
29 Apr - 00:35:04 10° WSW 00:49:42 35° S 01:01:06 10° SE daylight
29 Apr - 02:47:25 10° WSW 02:58:25 24° SSW 03:06:51 10° SSE daylight
29 Apr - 20:35:22 10° SSW 20:47:30 24° SSE 20:59:31 10° ESE daylight
29 Apr - 22:42:13 10° SW 22:57:08 35° S 23:10:15 10° ESE daylight
